Content
SEND FEEDBACK

Daily
Averages
Monthly
Summary
Canada

MONTREAL, QUEBEC


Home > North America > Canada > Quebec
Elevation: 118 feet     Latitude: 45 28N     Longitude: 073 45W

WEATHER
 
SELECT A DAY
Number of Records: 201,357;   Date Range: 1/1/95 - 10/18/14
 
SHARE

PRINT THIS DATA

[ ← Previous Day ]
WEATHER ALMANAC - JUNE 19, 2013
[ Next Day → ]
[ °C ]   °F
Weather ElementAverageHighLow
Temperature59.4 °F68 °F (4:00 pm)48.2 °F (6:00 am)
Dewpoint42.1 °F48.2 °F (9:00 pm)37.4 °F (1:00 am)
Humidity52 %71 % (6:00 am)31 % (2:00 pm)
Barometer30.10 in30.15 in (11:00 pm)30.04 in (1:00 am)
Wind Speed7.7 mph15 mph (5:00 pm)
Weather ElementAverage
Visibility25.1 mi
Wind DirectionWSW (233.3 °)

Weather ElementTotal
Precipitation---
Heating Degree Days6.9 (Base 65)
Growing Degree Days8.1 (Base 50)
Averaged from 27 records on June 19, 2013
WEATHER CONDITIONS BREAKOUT
WIND DIRECTION BREAKOUT
WEATHER BY HOUR - JUNE 19, 2013
[ °C ]   °F
Local TimeTemperatureDewpointHumidityBarometerVisibilityWind DirectionWind SpeedGust SpeedPrecipitationEventsConditions
1:00 AM53.6 °F37.4 °F54 %30.04 in15.0 miNNW (340°)8.1 mphClear
2:00 AM52.0 °F38.0 °F48 %30.05 in15.0 miNNW (340°)5.8 mph
2:00 AM51.8 °F37.4 °F58 %30.04 in15.0 miNNW (340°)5.8 mphClear
3:00 AM49.3 °F39.6 °F69 %30.05 in15.0 miNNW (330°)2.3 mphPartly Cloudy
4:00 AM49.8 °F39.4 °F67 %30.06 in15.0 miNW (320°)5.8 mphPartly Cloudy
5:00 AM48.4 °F39.0 °F70 %30.07 in30.0 miNNW (330°)5.8 mphPartly Cloudy
6:00 AM48.2 °F39.2 °F71 %30.09 in30.0 miNNW (340°)4.6 mphClear
7:00 AM51.8 °F39.2 °F62 %30.10 in30.0 miNorth (350°)8.1 mphClear
8:00 AM55.0 °F40.0 °F46 %30.12 in28.0 miNNE (20°)10.4 mph
8:00 AM55.4 °F39.2 °F54 %30.12 in30.0 miNNE (30°)10.4 mphClear
9:00 AM57.9 °F42.1 °F56 %30.14 in30.0 miNorth5.8 mphPartly Cloudy
10:00 AM59.5 °F40.5 °F49 %30.13 in30.0 miNorth (350°)3.5 mphPartly Cloudy
11:00 AM61.3 °F39.9 °F45 %30.13 in30.0 miNorth (360°)4.6 mphPartly Cloudy
12:00 PM62.6 °F44.6 °F52 %30.13 in30.0 miCalmScattered Clouds
1:00 PM64.4 °F44.6 °F49 %30.12 in30.0 miWest (270°)4.6 mphScattered Clouds
2:00 PM65.0 °F42.0 °F31 %30.12 in28.0 miSW (220°)9.2 mphPartly Cloudy
2:00 PM64.4 °F41.0 °F42 %30.12 in30.0 miSW (230°)10.4 mphScattered Clouds
3:00 PM66.2 °F44.6 °F46 %30.11 in30.0 miSSW (200°)12.7 mphScattered Clouds
4:00 PM68.0 °F46.4 °F46 %30.10 in30.0 miSSW (200°)13.8 mphPartly Cloudy
5:00 PM68.0 °F44.6 °F43 %30.10 in25.0 miSouth (190°)15.0 mphClear
6:00 PM68.0 °F42.8 °F40 %30.10 in30.0 miSSW (210°)12.7 mphClear
7:00 PM68.0 °F42.8 °F40 %30.10 in30.0 miSSW (210°)11.5 mphClear
8:00 PM66.0 °F47.0 °F39 %30.12 in28.0 miSW (220°)10.4 mphScattered Clouds
8:00 PM66.2 °F46.4 °F49 %30.12 in30.0 miSW (220°)9.2 mphClear
9:00 PM62.6 °F48.2 °F59 %30.12 in15.0 miSW (220°)6.9 mphClear
10:00 PM60.8 °F46.4 °F59 %30.14 in15.0 miSW (230°)5.8 mphClear
11:00 PM59.0 °F44.6 °F59 %30.15 in15.0 miSW (230°)5.8 mphClear
Hourly data recorded from CYUL, located miles away from Montreal, Quebec







STORIES FROM OUR PARTNERS